Vorticity
nan nan nan nan nan nan nan nan nan nan nan nan nan nan nan nan nan nan nan nan nan nan nan nan nan nan nan nan nan nan nan nan nan nan nan nan nan nan nan nan nan nan nan nan nan
nan 8 8 9 9 8 9 8 8 8 8 9 8 8 9 10 11 12 8 4 2 6 9 6 6 7 5 10 8 5 8 7 4 4 7 13 11 10 4 6 6 7 9 10 nan
nan 8 9 8 8 7 8 8 8 7 8 8 8 9 11 14 12 21 18 16 13 8 4 7 8 6 5 7 9 9 9 7 2 4 7 13 9 10 -1 2 14 10 4 3 nan
nan 11 7 8 9 8 8 7 8 9 7 8 8 10 16 13 8 -6 -1 22 31 23 6 7 7 7 7 6 6 7 8 6 1 8 6 7 15 16 5 4 13 15 9 8 nan
nan 9 8 9 9 8 8 9 8 9 9 10 8 13 13 5 3 -10 -2 13 29 28 6 6 7 7 7 4 4 8 12 6 1 5 3 8 12 14 9 8 5 13 15 10 nan
nan 8 8 8 8 10 12 12 10 10 9 8 10 11 8 5 10 14 12 4 10 20 20 5 5 9 8 9 5 4 11 6 17 8 4 10 6 5 8 7 5 5 4 8 nan
nan 8 7 8 10 12 14 15 16 12 8 8 10 10 8 8 2 6 12 9 8 7 11 14 11 8 12 10 7 4 12 13 10 10 9 9 8 4 3 3 2 7 7 2 nan
nan 7 8 9 13 13 14 18 19 16 10 10 13 10 7 13 8 4 5 11 9 6 4 6 15 13 9 11 13 9 2 13 10 6 10 6 8 8 5 3 5 5 7 9 nan
nan 7 8 11 13 11 11 20 27 19 11 10 11 9 9 12 12 15 14 11 7 8 5 8 11 11 9 7 5 11 7 5 7 5 8 3 7 11 10 6 7 7 8 6 nan
nan 8 8 11 12 9 13 17 17 15 12 8 7 7 14 9 8 9 16 10 5 7 9 12 8 8 8 17 13 7 5 5 10 7 6 5 3 6 12 10 9 7 6 8 nan
nan 8 10 11 12 14 17 14 4 7 10 8 5 -1 7 11 8 6 9 5 6 8 9 10 9 18 9 -5 5 15 10 7 6 8 11 7 5 6 3 12 12 8 6 7 nan
nan 9 10 11 13 17 15 10 8 7 9 10 9 8 2 6 3 11 9 4 6 7 11 13 13 9 13 8 5 8 9 2 11 20 8 10 7 8 5 6 9 7 8 7 nan
nan 8 11 14 19 15 9 6 6 9 13 11 12 10 12 11 8 8 5 10 10 10 8 1 16 17 9 8 3 3 7 7 8 12 12 10 11 11 10 5 7 7 9 9 nan
nan 10 12 19 17 9 7 8 9 9 10 10 8 9 10 10 8 12 12 7 10 9 5 9 20 11 8 9 7 8 8 6 7 8 7 4 12 13 16 7 4 9 8 7 nan
nan 13 19 20 11 10 10 8 9 9 7 10 8 8 12 10 9 8 10 14 14 9 2 15 21 7 5 9 9 7 9 17 15 8 6 4 11 13 18 15 10 7 9 11 nan
nan 20 19 14 11 7 8 9 9 7 7 12 10 9 10 10 10 9 5 6 11 10 9 15 9 10 10 12 9 10 5 8 14 13 9 12 6 8 18 12 9 13 11 10 nan
nan 21 15 9 11 8 5 8 10 6 5 9 12 9 11 10 10 10 6 5 5 6 12 10 7 9 8 6 6 11 9 8 8 8 12 13 3 5 7 20 14 11 10 9 nan
nan 23 14 9 10 8 6 7 7 8 8 9 7 10 13 8 10 11 6 13 14 1 6 9 8 6 9 9 11 8 6 11 10 9 11 10 7 8 15 19 13 10 8 8 nan
nan 21 12 10 10 7 7 9 6 10 9 5 12 14 12 8 10 7 7 7 12 14 11 6 7 8 11 13 12 9 8 8 8 8 11 6 5 7 16 16 13 9 6 7 nan
nan 11 11 12 8 7 12 8 8 6 9 9 12 9 7 11 9 9 11 9 8 11 9 8 8 11 8 4 7 13 12 3 9 12 7 10 10 11 9 8 8 7 6 7 nan
nan 12 12 9 6 8 9 5 13 14 9 2 3 5 11 16 10 9 6 11 11 13 13 8 6 11 9 10 8 8 7 7 10 9 10 11 10 17 15 9 7 6 8 9 nan
nan 9 12 7 7 10 4 9 11 12 11 9 9 7 4 7 16 14 9 5 8 14 9 11 11 9 12 16 8 4 8 7 9 10 8 8 8 16 19 12 10 11 9 9 nan
nan 9 9 9 5 9 10 12 10 8 6 10 9 10 8 11 13 8 6 6 11 16 10 9 8 9 8 10 13 13 8 7 7 12 13 7 11 12 12 12 11 10 9 8 nan
nan 9 11 10 10 5 10 7 12 16 8 9 10 10 10 8 11 12 8 7 9 9 10 13 12 13 9 9 12 11 9 11 9 8 13 8 14 10 8 6 7 7 9 9 nan
nan 12 9 5 5 8 14 10 7 12 12 12 11 8 15 11 10 9 9 9 8 7 13 12 9 9 9 11 11 11 10 8 5 8 6 8 13 15 6 5 8 8 9 9 nan
nan 7 10 9 8 11 8 9 6 8 8 9 8 7 15 11 8 7 8 12 12 10 8 10 12 8 9 11 8 9 10 8 5 8 8 9 11 18 9 6 13 13 9 8 nan
nan nan nan nan nan nan nan nan nan nan nan nan nan nan nan nan nan nan nan nan nan nan nan nan nan nan nan nan nan nan nan nan nan nan nan nan nan nan nan nan nan nan nan nan nan
CAPE
59 70 64 46 55 51 49 29 29 48 57 43 31 39 67 62 39 12 0 0 0 4 62 41 0 0 130 251 173 2 0 5 13 1 0 0 0 0 0 0 0 0 382 858 931
63 49 52 53 63 55 55 56 61 44 58 40 25 35 54 62 7 1 0 0 3 0 62 29 6 0 96 140 189 23 0 0 0 0 0 0 0 0 0 0 0 466 898 959 890
48 60 46 33 43 44 44 52 64 67 68 63 63 57 59 45 12 0 4 10 2 23 0 81 51 0 95 30 84 19 0 0 0 0 0 0 0 0 0 0 0 230 1083 895 885
46 55 51 47 48 51 55 55 59 83 76 79 57 49 51 29 3 22 63 7 12 15 0 80 58 14 59 40 4 0 0 0 0 0 15 0 0 0 0 0 0 0 40 534 752
56 50 45 40 48 56 62 61 70 87 99 85 90 51 28 11 0 0 0 0 0 20 1 44 52 6 17 1 1 0 0 0 2 4 0 0 0 0 0 0 0 0 0 23 284
39 45 40 46 60 80 114 143 159 107 126 133 103 70 4 7 0 0 0 2 5 4 6 36 54 12 14 5 0 0 16 25 5 0 0 0 0 0 0 0 0 0 0 0 0
41 36 39 28 72 95 123 161 198 183 114 123 121 77 30 0 0 0 5 5 0 0 0 2 65 67 0 3 0 0 48 38 35 0 0 0 0 0 0 0 0 0 0 0 0
47 35 58 57 76 87 108 182 183 198 137 97 185 72 4 0 0 3 0 0 0 0 0 0 0 0 30 21 7 23 38 37 20 0 0 0 0 0 0 0 0 0 0 0 0
40 25 64 54 65 20 47 127 180 176 127 123 49 51 31 89 63 1 0 0 0 0 0 0 0 80 50 10 42 41 11 3 6 7 0 0 0 0 0 0 0 0 0 0 0
39 37 38 58 43 11 0 6 65 10 28 56 55 4 4 19 9 0 0 6 1 1 0 0 6 117 45 9 3 0 0 0 0 0 0 0 0 0 0 0 0 0 0 0 0
31 41 41 49 41 13 0 1 0 1 26 4 1 3 25 11 0 0 0 1 0 0 7 60 99 65 0 0 0 0 0 0 0 0 0 0 0 0 0 0 0 0 0 0 0
34 36 34 34 36 7 0 1 13 1 2 0 7 1 3 1 0 0 8 26 16 0 6 13 39 0 7 0 4 0 0 0 0 0 8 0 0 0 0 0 0 0 0 0 0
29 32 24 9 20 0 0 0 0 1 0 0 0 0 11 0 0 0 27 7 0 7 18 18 2 32 12 2 0 4 0 0 0 0 0 0 0 0 0 0 0 0 0 0 0
27 25 9 2 0 0 0 0 1 0 0 7 2 12 56 1 17 35 26 4 3 6 3 6 0 36 13 1 0 23 0 0 6 0 0 0 0 0 0 0 0 0 0 0 0
14 14 2 0 0 0 0 0 0 0 0 5 8 0 23 15 0 24 66 19 9 15 12 0 24 9 32 0 3 0 1 6 2 3 0 0 0 0 0 0 0 0 0 0 0
13 8 0 0 0 0 0 0 0 1 0 8 6 5 4 4 26 26 27 1 3 3 3 18 18 16 5 0 0 0 0 0 0 1 1 0 0 0 0 0 0 0 0 0 0
7 0 0 0 0 0 0 0 0 0 0 1 15 5 2 9 17 38 22 4 4 2 1 1 3 0 0 0 0 0 0 1 1 2 0 0 0 0 0 0 0 0 0 0 0
0 0 0 0 0 0 0 0 0 0 0 0 2 2 2 6 3 23 2 1 3 4 0 1 0 3 0 0 0 0 0 0 10 0 0 0 0 0 0 0 0 0 0 0 0
0 0 0 0 0 0 0 0 0 0 0 1 0 0 4 1 0 6 2 3 1 19 0 0 11 4 2 0 0 9 3 1 0 0 0 0 0 0 0 0 0 0 0 0 0
0 0 0 0 0 0 0 0 0 0 0 3 0 0 1 2 2 3 3 0 0 0 0 0 8 8 5 3 0 5 0 0 0 0 0 0 0 0 0 0 0 0 0 0 0
0 0 0 0 0 0 0 0 0 0 0 1 0 0 0 0 0 0 0 0 0 0 0 0 0 24 6 8 2 9 8 0 0 0 0 0 0 0 0 0 0 0 0 0 0
0 0 0 0 0 1 3 4 0 1 0 0 0 0 0 0 0 0 0 0 0 0 0 0 0 2 1 0 0 1 1 0 0 0 0 0 0 0 0 0 0 0 0 0 0
0 0 0 0 0 0 0 0 0 0 0 0 0 0 0 0 0 0 0 0 0 0 0 0 0 0 0 0 0 0 0 0 0 0 0 0 0 0 0 0 0 0 0 0 0
0 0 0 0 0 0 1 0 4 0 0 0 0 0 0 0 0 0 0 0 0 0 0 0 0 0 0 0 0 0 0 0 0 0 0 0 0 0 0 0 0 0 0 0 0
0 1 1 0 0 0 1 10 7 0 0 0 1 0 0 0 0 0 0 0 0 0 0 0 0 0 0 0 0 0 0 0 0 0 0 0 0 0 0 0 0 0 0 0 0
0 0 0 0 0 0 0 1 3 2 2 5 1 0 0 0 0 0 0 0 0 0 0 0 0 0 0 0 0 0 0 0 0 0 0 0 0 0 0 0 0 0 0 0 0
0 0 2 0 0 0 0 1 1 5 3 13 0 0 0 0 0 0 0 0 0 0 0 0 0 0 0 0 0 0 0 0 0 0 0 0 0 0 0 0 0 0 0 0 0